Kenosha, WI

4:16 AM CDT on July 27, 2017 (GMT -0500)
Kenosha Regional

Weather History for KENW - July, 2014

Change the Weather History Date:

Monday, July 14, 2014

  Actual Average Record
Temperature  
Mean Temperature 67 °F -  
Max Temperature 78 °F 81 °F 97 °F (1976)
Min Temperature 55 °F 61 °F 42 °F (1975)
Cooling Degree Days 2    
Growing Degree Days 17 (Base 50)    
Moisture  
Dew Point 56 °F    
Average Humidity 75    
Maximum Humidity 97    
Minimum Humidity 40    
Precipitation  
Precipitation 0.00 in - - ()
Sea Level Pressure  
Sea Level Pressure 29.85 in    
Wind  
Wind Speed 5 mph (West)    
Max Wind Speed 12 mph    
Max Gust Speed 22 mph    
Visibility 10 miles    
Events      
Averages and records for this station are not official NWS values.
T = Trace of Precipitation, MM = Missing Value Source: NWS Daily Summary

Daily Weather History Graph

Daily Weather History Graph

Search for Another Location

Airport or City:

Trip Planner

Search our weather history database for the weather conditions in past years. The results will help you decide how hot, cold, wet, or windy it might be!

Date:

Astronomy

Jul. 14, 2014 Rise Set
Actual Time 5:26 AM CDT 8:28 PM CDT
Civil Twilight 4:52 AM CDT 9:01 PM CDT
Nautical Twilight 4:09 AM CDT 9:44 PM CDT
Astronomical Twilight 3:18 AM CDT 10:35 PM CDT
Moon 9:52 PM CDT (7/14) 8:13 AM CDT (7/14)
Length of Visible Light 16h 09m
Length of Day
15h 01m
Waning Gibbous, 93% of the Moon is Illuminated
Jul 14
Waning Gibbous
Jul 18
Last Quarter
Jul 26
New
Aug 3
First Quarter
Aug 10
Full

Hourly Weather History & Observations

Time (CDT) Temp. Dew Point Humidity Pressure Visibility Wind Dir Wind Speed Gust Speed Precip Events Conditions
12:53 AM 62.1 °F 60.1 °F 93% 29.90 in 10.0 mi West 3.5 mph - N/A   Clear
1:53 AM 59.0 °F 57.9 °F 96% 29.89 in 10.0 mi Calm Calm - N/A   Clear
2:53 AM 59.0 °F 57.9 °F 96% 29.88 in 9.0 mi WSW 3.5 mph - N/A   Clear
3:53 AM 59.0 °F 57.9 °F 96% 29.87 in 7.0 mi WSW 3.5 mph - N/A   Clear
4:53 AM 59.0 °F 57.9 °F 96% 29.87 in 9.0 mi SW 4.6 mph - N/A   Partly Cloudy
5:53 AM 57.9 °F 57.0 °F 97% 29.86 in 8.0 mi WSW 3.5 mph - N/A   Clear
6:53 AM 61.0 °F 59.0 °F 93% 29.86 in 9.0 mi Calm Calm - N/A   Mostly Cloudy
7:53 AM 64.9 °F 60.1 °F 84% 29.86 in 10.0 mi SW 4.6 mph - N/A   Overcast
8:53 AM 68.0 °F 57.9 °F 70% 29.86 in 10.0 mi SSW 8.1 mph - N/A   Mostly Cloudy
9:53 AM 70.0 °F 59.0 °F 68% 29.86 in 10.0 mi SW 6.9 mph - N/A   Mostly Cloudy
10:53 AM 73.0 °F 61.0 °F 66% 29.86 in 10.0 mi SSW 8.1 mph - N/A   Mostly Cloudy
11:53 AM 75.9 °F 61.0 °F 60% 29.83 in 10.0 mi SW 9.2 mph - N/A   Mostly Cloudy
12:53 PM 73.0 °F 55.9 °F 55% 29.82 in 10.0 mi NW 10.4 mph - N/A   Mostly Cloudy
3:53 PM 77.0 °F 51.1 °F 40% 29.80 in 10.0 mi WNW 11.5 mph - N/A   Partly Cloudy
5:53 PM 72.0 °F 52.0 °F 49% 29.81 in 10.0 mi NW 10.4 mph 18.4 mph N/A   Mostly Cloudy
6:53 PM 70.0 °F 53.1 °F 55% 29.81 in 10.0 mi WNW 9.2 mph - N/A   Overcast
7:53 PM 66.9 °F 52.0 °F 59% 29.84 in 10.0 mi NW 10.4 mph 21.9 mph N/A   Scattered Clouds
8:53 PM 64.0 °F 51.1 °F 63% 29.85 in 10.0 mi NNW 9.2 mph - N/A   Scattered Clouds
9:53 PM 57.9 °F 52.0 °F 81% 29.85 in 10.0 mi WNW 5.8 mph - N/A   Clear
10:53 PM 60.1 °F 52.0 °F 75% 29.86 in 10.0 mi NW 11.5 mph - N/A   Mostly Cloudy
11:53 PM 55.9 °F 48.9 °F 77% 29.86 in 10.0 mi WNW 5.8 mph - N/A   Clear